sat.trackr.live / text

‹ back to catalog

ANGOSAT 2

NORAD 54033 · 2022-131A

PAYLOAD ACTIVE UNKNOWN

§ Identity

Operator
Country
ANG
Launch date
2022-10-12
Launch site
TYMSC
Launch vehicle
Mass (kg)
RCS (m²)

Purposes: comms

External: N2YO · Heavens-Above · Gunter

§ Orbital elements

Epoch: 2026-05-25T03:51:09.136224Z

Period
1,436.09 min
Inclination
0.0352°
Eccentricity
0.0001523
Mean motion
1.00272303 rev/d
Perigee alt
35,780.0 km
Apogee alt
35,792.9 km
Semi-major
42,164.6 km
B*
0.0000e+0
RAAN
97.6433°
Arg perigee
22.6200°
Mean anomaly
203.2715°
Rev number
1,324

§ Raw data

ANGOSAT 21 54033U 22131A   26145.16052241  .00000133  00000+0  00000+0 0  99982 54033   0.0352  97.6433 0001523  22.6200 203.2715  1.00272303 13240

JSON: /api/v1/satellites/54033 · /tle

For live sub-satellite position, see the globe view (requires WebGL).

§ Visibility from observer

Set your observer location to see the next 7 days of passes ≥ 10°. The values pass through the URL so the page stays shareable.

No JS? Fill the form by hand. The geolocation button needs JavaScript.